Location: Newark
(23.5328°S, 46.7919°W)
Time: 23:18:36
(UTC+00:00)

N. Korean satellite - Pass Details

Date: 14 March 2021
Orbit: 453 x 499 km, 97.2° (Epoch: 12 April)

Event Time Altitude Azimuth Distance (km) Brightness Sun altitude
Rises 07:03:18 0° 48° (NE) 2,583 10.6 -29.1°
Reaches altitude 10° 07:06:07 10° 72° (ENE) 1,708 10.0 -28.4°
Maximum altitude 07:08:11 15° 107° (ESE) 1,447 9.8 -28.0°
Drops below altitude 10° 07:10:16 10° 141° (SE) 1,714 10.0 -27.5°
Sets 07:13:06 0° 165° (SSE) 2,600 10.7 -26.9°
